Change the Weather History Date:

Monday, February 24, 2014

  Actual Average Record
Temperature  
Mean Temperature 26 °F -  
Max Temperature 33 °F 41 °F 55 °F (2012)
Min Temperature 19 °F 23 °F -11 °F (2015)
Degree Days  
Heating Degree Days 39    
Moisture  
Dew Point 9 °F    
Average Humidity 50    
Maximum Humidity 68    
Minimum Humidity 32    
Precipitation  
Precipitation 0.00 in - - ()
Sea Level Pressure  
Sea Level Pressure 30.10 in    
Wind  
Wind Speed 9 mph (West)    
Max Wind Speed 23 mph    
Max Gust Speed 32 mph    
Visibility 10 miles    
Events      
Averages and records for this station are not official NWS values.
T = Trace of Precipitation, MM = Missing Value Source: NWS Daily Summary

Daily Weather History Graph

Daily Weather History Graph

Search for Another Location

Airport or City:

Trip Planner

Search our weather history database for the weather conditions in past years. The results will help you decide how hot, cold, wet, or windy it might be!

Date:

Astronomy

Feb. 24, 2014 Rise Set
Actual Time 7:01 AM EST 6:07 PM EST
Civil Twilight 6:34 AM EST 6:34 PM EST
Nautical Twilight 6:03 AM EST 7:06 PM EST
Astronomical Twilight 5:31 AM EST 7:37 PM EST
Moon 2:59 AM EST (2/24) 1:06 PM EST (2/24)
Length of Visible Light 12h 00m
Length of Day
11h 05m
Waning Crescent, 28% of the Moon is Illuminated
Feb 24
Waning Crescent
Mar 1
New
Mar 8
First Quarter
Mar 16
Full
Mar 23
Last Quarter

Hourly Weather History & Observations

Time (EST) Temp. Windchill Dew Point Humidity Pressure Visibility Wind Dir Wind Speed Gust Speed Precip Events Conditions
12:15 AM 28.4 °F 20.4 °F 14.0 °F 55% 30.04 in 10.0 mi WNW 8.1 mph - N/A   Partly Cloudy
12:35 AM 28.4 °F 21.2 °F 12.2 °F 51% 30.05 in 10.0 mi West 6.9 mph - N/A   Clear
12:55 AM 26.6 °F 20.0 °F 12.2 °F 55% 30.05 in 10.0 mi West 5.8 mph - N/A   Clear
1:15 AM 26.6 °F 20.0 °F 12.2 °F 55% 30.06 in 10.0 mi WNW 5.8 mph - N/A   Clear
1:35 AM 26.6 °F 19.1 °F 10.4 °F 51% 30.06 in 10.0 mi WNW 6.9 mph - N/A   Clear
1:55 AM 24.8 °F 16.9 °F 8.6 °F 50% 30.06 in 10.0 mi West 6.9 mph - N/A   Clear
2:15 AM 24.8 °F 16.9 °F 8.6 °F 50% 30.06 in 10.0 mi WNW 6.9 mph - N/A   Clear
2:35 AM 24.8 °F 17.9 °F 6.8 °F 46% 30.06 in 10.0 mi West 5.8 mph - N/A   Clear
2:55 AM 24.8 °F 17.9 °F 6.8 °F 46% 30.06 in 10.0 mi West 5.8 mph - N/A   Clear
3:15 AM 23.0 °F 17.0 °F 6.8 °F 50% 30.06 in 10.0 mi West 4.6 mph - N/A   Clear
3:35 AM 21.2 °F 14.9 °F 6.8 °F 54% 30.06 in 10.0 mi West 4.6 mph - N/A   Clear
3:55 AM 21.2 °F 14.9 °F 6.8 °F 54% 30.06 in 10.0 mi WSW 4.6 mph - N/A   Clear
4:15 AM 21.2 °F 13.6 °F 8.6 °F 58% 30.06 in 10.0 mi West 5.8 mph - N/A   Clear
4:35 AM 23.0 °F 17.0 °F 6.8 °F 50% 30.06 in 10.0 mi WSW 4.6 mph - N/A   Partly Cloudy
4:55 AM 21.2 °F 11.7 °F 6.8 °F 54% 30.06 in 10.0 mi WSW 8.1 mph - N/A   Partly Cloudy
5:15 AM 21.2 °F 12.6 °F 8.6 °F 58% 30.06 in 10.0 mi WSW 6.9 mph - N/A   Partly Cloudy
5:35 AM 21.2 °F 11.7 °F 8.6 °F 58% 30.06 in 10.0 mi SW 8.1 mph - N/A   Clear
5:55 AM 21.2 °F 12.6 °F 8.6 °F 58% 30.06 in 10.0 mi WSW 6.9 mph - N/A   Clear
6:15 AM 21.2 °F 13.6 °F 8.6 °F 58% 30.06 in 10.0 mi WSW 5.8 mph - N/A   Clear
6:35 AM 21.2 °F 13.6 °F 10.4 °F 63% 30.06 in 10.0 mi WSW 5.8 mph - N/A   Partly Cloudy
6:55 AM 21.2 °F 13.6 °F 10.4 °F 63% 30.06 in 10.0 mi West 5.8 mph - N/A   Clear
7:15 AM 21.2 °F 10.9 °F 10.4 °F 63% 30.07 in 10.0 mi WSW 9.2 mph - N/A   Partly Cloudy
7:35 AM 21.2 °F 12.6 °F 12.2 °F 68% 30.08 in 10.0 mi West 6.9 mph - N/A   Scattered Clouds
7:55 AM 23.0 °F 13.1 °F 12.2 °F 63% 30.09 in 10.0 mi West 9.2 mph 18.4 mph N/A   Overcast
8:15 AM 21.2 °F 10.9 °F 10.4 °F 63% 30.09 in 10.0 mi West 9.2 mph - N/A   Overcast
8:35 AM 23.0 °F 11.1 °F 12.2 °F 63% 30.10 in 10.0 mi West 12.7 mph 19.6 mph N/A   Mostly Cloudy
8:55 AM 24.8 °F 12.9 °F 14.0 °F 64% 30.11 in 10.0 mi WSW 13.8 mph 18.4 mph N/A   Scattered Clouds
9:15 AM 24.8 °F 14.0 °F 14.0 °F 64% 30.10 in 10.0 mi WSW 11.5 mph 17.3 mph N/A   Mostly Cloudy
9:35 AM 24.8 °F 12.9 °F 12.2 °F 59% 30.11 in 10.0 mi West 13.8 mph 20.7 mph N/A   Mostly Cloudy
9:55 AM 26.6 °F 13.8 °F 12.2 °F 55% 30.11 in 10.0 mi West 17.3 mph 24.2 mph N/A   Scattered Clouds
10:15 AM 26.6 °F 16.2 °F 12.2 °F 55% 30.11 in 10.0 mi WSW 11.5 mph 19.6 mph N/A   Mostly Cloudy
10:35 AM 26.6 °F 15.7 °F 10.4 °F 51% 30.11 in 10.0 mi WSW 12.7 mph 19.6 mph N/A   Overcast
10:55 AM 26.6 °F 14.7 °F 12.2 °F 55% 30.11 in 10.0 mi West 15.0 mph 21.9 mph N/A   Mostly Cloudy
11:15 AM 26.6 °F 14.7 °F 12.2 °F 55% 30.12 in 10.0 mi West 15.0 mph 21.9 mph N/A   Mostly Cloudy
11:35 AM 26.6 °F 15.2 °F 12.2 °F 55% 30.12 in 10.0 mi West 13.8 mph 20.7 mph N/A   Mostly Cloudy
11:55 AM 26.6 °F 16.2 °F 12.2 °F 55% 30.11 in 10.0 mi West 11.5 mph 20.7 mph N/A   Mostly Cloudy
12:15 PM 28.4 °F 16.6 °F 12.2 °F 51% 30.11 in 10.0 mi West 16.1 mph 23.0 mph N/A   Overcast
12:35 PM 28.4 °F 18.5 °F 10.4 °F 47% 30.10 in 10.0 mi West 11.5 mph 20.7 mph N/A   Overcast
12:55 PM 28.4 °F 17.0 °F 10.4 °F 47% 30.10 in 10.0 mi West 15.0 mph 19.6 mph N/A   Mostly Cloudy
1:15 PM 30.2 °F 19.3 °F 12.2 °F 47% 30.10 in 10.0 mi West 15.0 mph 23.0 mph N/A   Mostly Cloudy
1:35 PM 32.0 °F 20.1 °F 12.2 °F 44% 30.10 in 10.0 mi West 19.6 mph 25.3 mph N/A   Mostly Cloudy
1:55 PM 32.0 °F 21.2 °F 12.2 °F 44% 30.09 in 10.0 mi WSW 16.1 mph 26.5 mph N/A   Mostly Cloudy
2:15 PM 30.2 °F 18.9 °F 10.4 °F 44% 30.09 in 10.0 mi West 16.1 mph 24.2 mph N/A   Partly Cloudy
2:35 PM 33.8 °F 24.8 °F 10.4 °F 38% 30.09 in 10.0 mi West 12.7 mph 31.1 mph N/A   Mostly Cloudy
2:55 PM 32.0 °F 20.5 °F 8.6 °F 38% 30.09 in 10.0 mi WSW 18.4 mph 24.2 mph N/A   Mostly Cloudy
3:15 PM 33.8 °F 22.8 °F 10.4 °F 38% 30.09 in 10.0 mi West 18.4 mph 28.8 mph N/A   Mostly Cloudy
3:35 PM 32.0 °F 21.2 °F 8.6 °F 38% 30.10 in 10.0 mi WSW 16.1 mph 32.2 mph N/A   Mostly Cloudy
3:55 PM 32.0 °F 20.8 °F 6.8 °F 35% 30.11 in 10.0 mi West 17.3 mph 28.8 mph N/A   Scattered Clouds
4:15 PM 32.0 °F 23.6 °F 5.0 °F 32% 30.11 in 10.0 mi West 10.4 mph 25.3 mph N/A   Clear
4:35 PM 32.0 °F 19.2 °F 6.8 °F 35% 30.12 in 10.0 mi West 23.0 mph 31.1 mph N/A   Scattered Clouds
4:55 PM 30.2 °F 18.5 °F 5.0 °F 34% 30.12 in 10.0 mi West 17.3 mph 25.3 mph N/A   Partly Cloudy
5:15 PM 30.2 °F 20.2 °F 3.2 °F 32% 30.12 in 10.0 mi West 12.7 mph 25.3 mph N/A   Partly Cloudy
5:35 PM 30.2 °F 19.3 °F 3.2 °F 32% 30.12 in 10.0 mi West 15.0 mph 21.9 mph N/A   Clear
5:55 PM 28.4 °F 19.1 °F 3.2 °F 34% 30.13 in 10.0 mi West 10.4 mph 23.0 mph N/A   Clear
6:15 PM 28.4 °F 20.4 °F 3.2 °F 34% 30.13 in 10.0 mi West 8.1 mph 18.4 mph N/A   Clear
6:35 PM 28.4 °F 19.7 °F 3.2 °F 34% 30.14 in 10.0 mi WSW 9.2 mph - N/A   Clear
6:55 PM 26.6 °F 18.2 °F 3.2 °F 37% 30.14 in 10.0 mi West 8.1 mph - N/A   Clear
7:15 PM 26.6 °F 19.1 °F 3.2 °F 37% 30.14 in 10.0 mi West 6.9 mph - N/A   Clear
7:35 PM 26.6 °F 20.0 °F 3.2 °F 37% 30.15 in 10.0 mi West 5.8 mph - N/A   Clear
7:55 PM 26.6 °F 18.2 °F 3.2 °F 37% 30.15 in 10.0 mi West 8.1 mph - N/A   Clear
8:15 PM 26.6 °F 20.0 °F 3.2 °F 37% 30.14 in 10.0 mi WSW 5.8 mph - N/A   Clear
8:35 PM 24.8 °F 17.9 °F 3.2 °F 40% 30.14 in 10.0 mi WSW 5.8 mph - N/A   Clear
8:55 PM 24.8 °F 17.9 °F 5.0 °F 43% 30.14 in 10.0 mi WSW 5.8 mph - N/A   Clear
9:15 PM 24.8 °F 19.1 °F 5.0 °F 43% 30.14 in 10.0 mi WSW 4.6 mph - N/A   Clear
9:35 PM 24.8 °F 19.1 °F 5.0 °F 43% 30.14 in 10.0 mi WSW 4.6 mph - N/A   Clear
9:55 PM 23.0 °F 18.4 °F 5.0 °F 46% 30.14 in 10.0 mi West 3.5 mph - N/A   Clear
10:15 PM 21.2 °F 16.4 °F 6.8 °F 54% 30.15 in 10.0 mi WSW 3.5 mph - N/A   Clear
10:35 PM 21.2 °F - 6.8 °F 54% 30.14 in 10.0 mi Calm Calm - N/A   Clear
10:55 PM 19.4 °F - 6.8 °F 58% 30.13 in 10.0 mi Calm Calm - N/A   Clear
11:15 PM 19.4 °F - 10.4 °F 68% 30.12 in 10.0 mi Calm Calm - N/A   Partly Cloudy
11:35 PM 19.4 °F - 8.6 °F 63% 30.12 in 10.0 mi Calm Calm - N/A   Scattered Clouds
11:55 PM 19.4 °F - 10.4 °F 68% 30.11 in 10.0 mi Calm Calm - N/A   Partly Cloudy